Location: Newark
(34.9471°N, 136.1778°E)
Time: 14:25:59
(UTC+00:00)

CUTE 1.7 + AOD 2 - Visible Passes

Search period start: 18 February 2020 00:00
Search period end: 28 February 2020 00:00
Orbit: 593 x 612 km, 97.6° (Epoch: 17 February)

Date Brightness Start Highest point End Pass type
(mag) Time Alt. Az. Time Alt. Az. Time Alt. Az.
18 Feb ? 19:53:35 10° NNE 19:57:41 52° E 20:01:46 10° S visible
19 Feb ? 20:05:28 10° NNE 20:09:40 75° ESE 20:13:50 10° S visible
20 Feb ? 20:17:26 10° N 20:21:37 77° WNW 20:25:47 10° SSW visible
21 Feb ? 20:29:29 10° N 20:33:34 53° WNW 20:37:38 10° SSW visible
22 Feb ? 19:07:21 10° ENE 19:09:34 14° E 19:11:47 10° SE visible
22 Feb ? 20:41:36 10° N 20:45:29 37° WNW 20:49:21 10° SW visible
23 Feb ? 19:18:34 10° NE 19:21:37 19° E 19:24:40 10° SE visible
23 Feb ? 20:53:50 10° NNW 20:57:23 27° WNW 21:00:56 10° SW visible
24 Feb ? 19:30:05 10° NE 19:33:40 27° E 19:37:13 10° SSE visible
24 Feb ? 21:06:11 10° NNW 21:09:16 20° WNW 21:12:19 10° WSW visible
25 Feb ? 19:41:46 10° NNE 19:45:41 37° E 19:49:34 10° SSE visible
26 Feb ? 19:53:33 10° NNE 19:57:40 54° E 20:01:45 10° S visible
27 Feb ? 20:05:27 10° NNE 20:09:39 77° ESE 20:13:49 10° S visible
